DELTA 1 DEB, 1529

Orbit data source: Space-Track

DELTA 1 DEB, 1529 is space debris in SSO originally from a launch on Fri, 02 Jul 1965 UTC launched from the Air Force Eastern Test Range (AFETR). Debris objects in space refer to the collection of defunct objects orbiting the Earth. Examples of debris include non-operational satellites, rocket bodies, and fragments generated from explosions, collisions, or faulty payload assembly.

Loading next visibility...
Identifier
1529, 1965-051D
Orbit
SSO
Country
Flag of USUS
Related business
Manufacturer
Unknown
Mission
Spacecraft
Bus & Motor
Unknown
Mass
1 kg wet, 1 kg dry
Launch date (UTC)
1965-07-02 (61 years ago)
Launch vehicle
Unknown
Launch site
Air Force Eastern Test Range (AFETR)
Object type
Payload
Rocket body
Debris
Shape & HBR
Unknown
Radar Cross Section
Small (<0.1 m²)

Expand to show TLE details & history
Last TLE update: 7 hours ago

TLE from 7 hours ago
0 DELTA 1 DEB
1 01529U 65051D   26095.61742143  .00000267  00000-0  13481-3 0  9999
2 01529  98.9941 333.5913 0037099  73.7452 286.7802 14.24238907145117
Epoch: 2026-04-05T14:49Z
TLE epoch observation values (Epoch: 2026-04-05T14:49:05.211Z)
Latitude
-0.00006°
Longitude
-82.60067°
Altitude
806.353 km
Speed
7.454 km/s
True Right ascension
22h 14m 21s
True Declination
0° 00' 00"
Sunlit
Object was in daylight at epoch
Visualization orbit readout
Latitude
Unknown
Longitude
Unknown
Altitude
Unknown
Speed
Unknown
Apparent Right ascension
Unknown
Apparent Declination
Unknown
Sunlit
N/A
Visualization observer readout
Local Sidereal Time
03:54:40
Azimuth
Unknown
Elevation
Unknown
Doppler factor
Unknown
Orbital elements
Apogee altitude
834.88 km
Perigee altitude
781.559 km
Semi-major axis
7,186.356 km
Eccentricity
0.00371
Inclination
98.9941°
RAAN
333.5913°
Arg. of periapsis
73.7452°
True anomaly
286.37264°
Mean anomaly
286.7802°
Eccentric anomaly
286.57647°
Mean motion
3.56271 °/min
Orbital period
101.05 mins
BSTAR
0.00013481
Loading maneuver chart data...
Computing Atmospheric mass density...
Loading historical data...
Loading historical data...
Loading historical data...
Loading historical data...
Loading historical data...
Loading historical data...
Loading historical data...
Other satellites on launch #51 in the year 1965 (1965-07-02 UTC)

Documentation

Showing up to 5 results
|